Location: ??????
(55.6500°N, 37.8000°E)
Time: 13:01:19
(UTC+00:00)

Cosmos 2112 Rocket - Pass Details

Date: 14 April 2024
Orbit: 754 x 785 km, 74.0° (Epoch: 18 May)

Event Time Altitude Azimuth Distance (km) Brightness Sun altitude
Exits shadow 01:39:34 - 203° (SSW) 3,195 6.7 -6.8°
Reaches altitude 10° 01:41:47 10° 203° (SSW) 2,337 6.1 -6.6°
Maximum altitude 01:47:07 84° 116° (ESE) 797 4.2 -5.9°
Drops below altitude 10° 01:52:30 10° 29° (NNE) 2,359 7.5 -5.2°
Sets 01:54:54 0° 29° (NNE) 3,291 8.3 -4.9°
